Вернуться в каталог

FENGYUN 1C DEB

АктивенSSO
NORAD 36211·DEBRIS·🇨🇳 China

Запущен May 10, 1999 с Taiyuan Satellite Launch Center

Loading…

Ближайшие Пролёты (ближайшие 24 часа)

TLE

УстаревающийSource: Space-Track

Эпоха: Sep 8, 2026, 05:21 UTC

1 36211U 99025DUL 26251.22309157  .00000653  00000-0  19942-3 0  9995
2 36211  98.5208 242.3529 0264830 158.5204 202.7340 14.26857349982110

Отслеживайте FENGYUN 1C DEB в реальном времени с AllMySat

Download on the App Store